This is the latest recevied weather packets stored in our database for station/object OK1PNK-5. If no packets are shown the sender has not sent any weather packets the latest 10 day(s).
| Time | Temp. | Humidity | Pressure | Rain* | Wind** | Luminosity | Snow |
|---|---|---|---|---|---|---|---|
| 1777554742 | 16.11° C | 18% | 987.5 hPa | 0 mm | - | - | - |
| 1777554143 | 16.11° C | 18% | 987.5 hPa | 0 mm | - | - | - |
| 1777553543 | 16.11° C | 18% | 987.5 hPa | 0 mm | - | - | - |
| 1777552942 | 16.11° C | 19% | 987.4 hPa | 0 mm | - | - | - |
| 1777552343 | 15.56° C | 19% | 987.5 hPa | 0 mm | - | - | - |
| 1777551742 | 15.56° C | 19% | 987.6 hPa | 0 mm | - | - | - |
| 1777551142 | 15.56° C | 18% | 987.7 hPa | 0 mm | - | - | - |
| 1777550542 | 15.56° C | 20% | 987.8 hPa | 0 mm | - | - | - |
| 1777549942 | 15.56° C | 21% | 987.9 hPa | 0 mm | - | - | - |
| 1777549342 | 13.33° C | 23% | 988.6 hPa | 0 mm | - | - | - |
| 1777548742 | 13.33° C | 23% | 988.6 hPa | 0 mm | - | - | - |
| 1777548142 | 13.33° C | 23% | 988.6 hPa | 0 mm | - | - | - |
| 1777547543 | 13.33° C | 23% | 988.6 hPa | 0 mm | - | - | - |
| 1777546942 | 13.33° C | 23% | 988.6 hPa | 0 mm | - | - | - |
| 1777546342 | 13.33° C | 23% | 988.6 hPa | 0 mm | - | - | - |
| 1777545742 | 13.33° C | 23% | 988.7 hPa | 0 mm | - | - | - |
| 1777545142 | 13.33° C | 23% | 988.6 hPa | 0 mm | - | - | - |
| 1777544542 | 12.78° C | 25% | 988.7 hPa | 0 mm | - | - | - |
| 1777543942 | 12.78° C | 25% | 988.8 hPa | 0 mm | - | - | - |
| 1777543343 | 12.78° C | 25% | 988.9 hPa | 0 mm | - | - | - |
| 1777542743 | 12.22° C | 26% | 988.9 hPa | 0 mm | - | - | - |
| 1777542142 | 10.56° C | 30% | 989.3 hPa | 0 mm | - | - | - |
| 1777541542 | 10.56° C | 30% | 989.3 hPa | 0 mm | - | - | - |
| 1777540943 | 10.56° C | 30% | 989.3 hPa | 0 mm | - | - | - |
| 1777540342 | 10.56° C | 30% | 989.3 hPa | 0 mm | - | - | - |
* Rain latest hour (hover to see other rain measurements)
** Current wind speed in m/s (hover to see current wind gust speed)